Date String (YYYY-MM-DD hh:mm:ss) UTC,Instrument flags,absolute air pressure of the measurement (hPa),sample flow rate (lpm),inlet stack bypass flow (lpm),air temperature of the measurement (°C),ambient temperature measured by the external sensor (°C),aerosol sample conditioner tube jacket temperature (°C),OPC LED temperature (°C),internal box temperature (°C),relative humidity of the measurement (%),span deviation,mass concentration of particles derived from Lorenz-Mie calculation of OPC scattering (μg/m³),mass concentration of particles derived from Lorenz-Mie calculation of OPC scattering (μg/m³),mass concentration of particles derived from Lorenz-Mie calculation of OPC scattering (μg/m³)
DateTimeUTC,F1_M11,P_M11,Q1_M11,Q2_M11,T1_M11,T2_M11,T3_M11,T4_M11,T5_M11,U1_M11,ZSPAN_M11,X2_M11,X0_M11,X1_M11
2023-11-09 02:00:00,SystemResetWarning,0834.3,5.00,000.00,022.3,021.3,000.0,030.7,023.7,22.0,0000.0,0003.49,0005.43,0003.20
2023-11-09 02:01:00,SystemResetWarning,0834.4,5.00,000.00,022.3,021.3,000.0,030.7,023.7,21.9,0000.0,0003.46,0005.32,0003.19
2023-11-09 02:02:00,SystemResetWarning,0834.4,5.01,000.00,022.3,021.3,000.0,030.7,023.7,21.8,0000.0,0003.44,0005.33,0003.17
2023-11-09 02:03:00,SystemResetWarning,0834.4,5.01,000.00,022.3,021.3,000.0,030.7,023.7,21.8,0000.0,0003.41,0005.15,0003.16
2023-11-09 02:04:00,SystemResetWarning,0834.4,5.00,000.00,022.3,021.3,000.0,030.7,023.7,21.7,0000.0,0003.36,0004.83,0003.14
2023-11-09 02:05:00,SystemResetWarning,0834.4,4.99,000.00,022.3,021.3,000.0,030.7,023.7,21.7,0000.0,0003.36,0004.60,0003.13
2023-11-09 02:06:00,SystemResetWarning,0834.5,5.00,000.00,022.3,021.3,000.0,030.7,023.7,21.7,0000.0,0003.35,0004.57,0003.12
2023-11-09 02:07:00,SystemResetWarning,0834.4,5.00,000.00,022.3,021.3,000.0,030.7,023.7,21.7,0000.0,0003.33,0004.43,0003.11
2023-11-09 02:08:00,SystemResetWarning,0834.4,5.01,000.00,022.3,021.3,000.0,030.7,023.7,21.6,0000.0,0003.29,0004.24,0003.10
2023-11-09 02:09:00,SystemResetWarning,0834.4,4.99,000.00,022.3,021.3,000.0,030.7,023.7,21.6,0000.0,0003.27,0004.16,0003.09
2023-11-09 02:10:00,SystemResetWarning,0834.4,5.00,000.00,022.3,021.3,000.0,030.7,023.7,21.5,0000.0,0003.27,0004.23,0003.09
2023-11-09 02:11:00,SystemResetWarning,0834.4,5.00,000.00,022.3,021.3,000.0,030.7,023.7,21.4,0000.0,0003.25,0004.17,0003.09
2023-11-09 02:12:00,SystemResetWarning,0834.5,5.00,000.00,022.3,021.3,000.0,030.7,023.7,21.3,0000.0,0003.27,0004.61,0003.09
2023-11-09 02:13:00,SystemResetWarning,0834.4,5.00,000.00,022.3,021.3,000.0,030.7,023.7,21.3,0000.0,0003.29,0005.65,0003.10
2023-11-09 02:14:00,SystemResetWarning,0834.5,5.00,000.00,022.3,021.3,000.0,030.7,023.7,21.3,0000.0,0003.28,0006.56,0003.09
2023-11-09 02:15:00,SystemResetWarning,0834.5,5.00,000.00,022.3,021.3,000.0,030.7,023.7,21.3,0000.0,0003.30,0006.58,0003.10
2023-11-09 02:16:00,SystemResetWarning,0834.5,5.01,000.00,022.3,021.3,000.0,030.7,023.7,21.4,0000.0,0003.31,0006.64,0003.11
2023-11-09 02:17:00,SystemResetWarning,0834.5,5.00,000.00,022.3,021.3,000.0,030.7,023.7,21.4,0000.0,0003.33,0006.74,0003.13
2023-11-09 02:18:00,SystemResetWarning,0834.5,5.00,000.00,022.3,021.3,000.0,030.7,023.7,21.4,0000.0,0003.34,0006.72,0003.14
2023-11-09 02:19:00,SystemResetWarning,0834.6,5.01,000.00,022.3,021.3,000.0,030.7,023.7,21.4,0000.0,0003.38,0006.94,0003.15
2023-11-09 02:20:00,SystemResetWarning,0834.7,4.98,000.00,022.3,021.3,000.0,030.7,023.8,21.4,0000.0,0003.40,0007.02,0003.16
2023-11-09 02:21:00,SystemResetWarning,0835.0,4.99,000.00,022.3,021.3,000.0,030.7,023.7,21.3,0000.0,0003.42,0007.04,0003.17
2023-11-09 02:22:00,SystemResetWarning,0835.0,5.01,000.00,022.3,021.3,000.0,030.7,023.7,21.4,0000.0,0003.44,0007.14,0003.18
2023-11-09 02:23:00,SystemResetWarning,0835.1,5.02,000.00,022.3,021.3,000.0,030.7,023.7,21.4,0000.0,0003.46,0007.04,0003.19
2023-11-09 02:24:00,SystemResetWarning,0835.1,5.00,000.00,022.3,021.3,000.0,030.7,023.7,21.5,0000.0,0003.45,0006.28,0003.19
2023-11-09 02:25:00,SystemResetWarning,0834.8,5.00,000.00,022.3,021.3,000.0,030.7,023.7,21.5,0000.0,0003.45,0004.88,0003.20
2023-11-09 02:26:00,SystemResetWarning,0834.6,5.00,000.00,022.3,021.3,000.0,030.7,023.8,21.6,0000.0,0003.46,0004.89,0003.21
2023-11-09 02:27:00,SystemResetWarning,0834.7,4.99,000.00,022.3,021.3,000.0,030.7,023.8,21.7,0000.0,0003.46,0005.26,0003.21
2023-11-09 02:28:00,SystemResetWarning,0834.8,5.00,000.00,022.3,021.3,000.0,030.7,023.8,21.7,0000.0,0003.44,0005.56,0003.20
2023-11-09 02:29:00,SystemResetWarning,0834.7,5.00,000.00,022.3,021.3,000.0,030.7,023.7,21.7,0000.0,0003.44,0005.62,0003.20
2023-11-09 02:30:00,SystemResetWarning,0834.6,5.00,000.00,022.3,021.3,000.0,030.7,023.7,21.7,0000.0,0003.43,0005.64,0003.20
2023-11-09 02:31:00,SystemResetWarning,0834.8,5.00,000.00,022.3,021.3,000.0,030.7,023.7,21.6,0000.0,0003.43,0005.59,0003.20
2023-11-09 02:32:00,SystemResetWarning,0834.9,5.00,000.00,022.3,021.3,000.0,030.7,023.8,21.5,0000.0,0003.46,0006.54,0003.20
2023-11-09 02:33:00,SystemResetWarning,0835.0,5.01,000.00,022.3,021.3,000.0,030.7,023.7,21.5,0000.0,0003.47,0006.95,0003.20
2023-11-09 02:34:00,SystemResetWarning,0834.7,5.01,000.00,022.3,021.3,000.0,030.7,023.7,21.4,0000.0,0003.47,0006.95,0003.20
2023-11-09 02:35:00,SystemResetWarning,0834.7,5.00,000.00,022.3,021.2,000.0,030.7,023.6,21.5,0000.0,0003.50,0007.14,0003.19
2023-11-09 02:36:00,SystemResetWarning,0834.7,4.99,000.00,022.3,021.2,000.0,030.7,023.7,21.6,0000.0,0003.51,0007.17,0003.19
2023-11-09 02:37:00,SystemResetWarning,0834.7,4.99,000.00,022.3,021.2,000.0,030.7,023.7,21.7,0000.0,0003.52,0007.45,0003.18
2023-11-09 02:38:00,SystemResetWarning,0834.6,4.99,000.00,022.3,021.2,000.0,030.7,023.7,21.7,0000.0,0003.54,0007.32,0003.18
2023-11-09 02:39:00,SystemResetWarning,0835.0,5.00,000.00,022.3,021.2,000.0,030.7,023.7,21.7,0000.0,0003.54,0007.15,0003.18
2023-11-09 02:40:00,SystemResetWarning,0834.9,5.00,000.00,022.2,021.2,000.0,030.7,023.7,21.7,0000.0,0003.55,0007.21,0003.18
2023-11-09 02:41:00,SystemResetWarning,0835.1,5.00,000.00,022.2,021.2,000.0,030.7,023.7,21.6,0000.0,0003.57,0007.22,0003.18
2023-11-09 02:42:00,SystemResetWarning,0835.2,5.00,000.00,022.2,021.1,000.0,030.6,023.7,21.7,0000.0,0003.57,0007.33,0003.18
2023-11-09 02:43:00,SystemResetWarning,0835.0,5.00,000.00,022.2,021.1,000.0,030.6,023.7,21.6,0000.0,0003.55,0006.43,0003.18
2023-11-09 02:44:00,SystemResetWarning,0834.7,5.00,000.00,022.2,021.1,000.0,030.6,023.6,21.6,0000.0,0003.53,0006.15,0003.18
2023-11-09 02:45:00,SystemResetWarning,0834.7,5.00,000.00,022.2,021.1,000.0,030.6,023.6,21.6,0000.0,0003.55,0006.21,0003.18
2023-11-09 02:46:00,SystemResetWarning,0834.7,5.00,000.00,022.1,021.0,000.0,030.6,023.5,21.6,0000.0,0003.54,0006.08,0003.19
2023-11-09 02:47:00,SystemResetWarning,0834.7,5.00,000.00,022.1,021.0,000.0,030.6,023.6,21.6,0000.0,0003.54,0006.42,0003.19
2023-11-09 02:48:00,SystemResetWarning,0834.8,5.01,000.00,022.1,021.0,000.0,030.6,023.6,21.6,0000.0,0003.51,0005.89,0003.20
2023-11-09 02:49:00,SystemResetWarning,0834.7,5.00,000.00,022.1,021.0,000.0,030.6,023.5,21.7,0000.0,0003.52,0005.86,0003.21
2023-11-09 02:50:00,SystemResetWarning,0834.7,5.00,000.00,022.1,021.0,000.0,030.6,023.5,21.7,0000.0,0003.55,0005.84,0003.22
2023-11-09 02:51:00,SystemResetWarning,0834.7,5.00,000.00,022.1,021.0,000.0,030.6,023.5,21.7,0000.0,0003.56,0005.82,0003.24
2023-11-09 02:52:00,SystemResetWarning,0834.7,4.99,000.00,022.1,020.9,000.0,030.5,023.5,21.7,0000.0,0003.60,0005.98,0003.25
2023-11-09 02:53:00,SystemResetWarning,0834.8,5.00,000.00,022.1,020.9,000.0,030.5,023.5,21.6,0000.0,0003.63,0006.75,0003.27
2023-11-09 02:54:00,SystemResetWarning,0835.0,5.00,000.00,022.0,020.9,000.0,030.5,023.5,21.6,0000.0,0003.65,0007.02,0003.30
2023-11-09 02:55:00,SystemResetWarning,0835.2,4.99,000.00,022.0,020.9,000.0,030.5,023.4,21.7,0000.0,0003.67,0007.07,0003.31
2023-11-09 02:56:00,SystemResetWarning,0835.3,5.01,000.00,022.0,020.9,000.0,030.5,023.4,21.8,0000.0,0003.69,0007.07,0003.31
2023-11-09 02:57:00,SystemResetWarning,0835.2,5.01,000.00,022.0,020.9,000.0,030.5,023.5,21.9,0000.0,0003.70,0007.11,0003.32
2023-11-09 02:58:00,SystemResetWarning,0835.0,5.00,000.00,022.0,020.9,000.0,030.5,023.4,22.0,0000.0,0003.70,0006.77,0003.32
2023-11-09 02:59:00,SystemResetWarning,0835.1,5.00,000.00,022.0,020.9,000.0,030.5,023.4,22.0,0000.0,0003.73,0006.94,0003.31
